Hourly Data Report for July 09, 2021

RANKIN INLET A
NUNAVUT
Current Station Operator: NAVCAN

62°48'38.000" N
92°06'53.000" W
32.30 m
2303405
71083
YRT

Download Data

Hourly Data (July 2021)
Hourly Data Report for July 9, 2021
TIME
LST
Temp Definition
°C
Dew Point Definition
°C
Rel Hum Definition
%
Precip. Amount Definition
mm

Wind Dir Definition
10's deg

Wind Spd Definition
km/h
Visibility Definition
km
Stn Press Definition
kPa
Hmdx Definition


Wind Chill Definition


Weather Definition


00:00 10.8 2.4 56   32 11 24.1 100.58     Mainly Clear
01:00 9.7 3.7 66   35 9 24.1 100.60     LegendNANA
02:00 8.0 4.8 80   22 3 24.1 100.63     LegendNANA
03:00 8.5 4.2 75   33 7 24.1 100.67     Mainly Clear
04:00 8.6 3.2 69   10 10 24.1 100.70     LegendNANA
05:00 8.9 2.2 63   11 12 24.1 100.73     LegendNANA
06:00 9.2 2.4 63   9 16 24.1 100.76     Clear
07:00 10.2 3.0 61   10 16 24.1 100.79     LegendNANA
08:00 9.6 3.8 67   11 21 48.3 100.81     LegendNANA
09:00 9.8 4.5 70   11 26 48.3 100.82     Mostly Cloudy
10:00 10.2 4.7 69   12 23 48.3 100.87     LegendNANA
11:00 10.3 4.3 66   12 27 48.3 100.89     LegendNANA
12:00 10.8 3.9 62   13 22 48.3 100.94     Mostly Cloudy
13:00 10.2 3.1 61   14 24 48.3 100.97     LegendNANA
14:00 9.2 3.4 67   14 25 48.3 101.00     LegendNANA
15:00 9.9 4.4 68   13 22 48.3 101.02     Mostly Cloudy
16:00 9.8 4.0 67   13 20 48.3 101.03     LegendNANA
17:00 10.3 3.9 65   12 17 48.3 101.04     LegendNANA
18:00 8.3 4.0 74   12 21 48.3 101.06     Mostly Cloudy
19:00 7.6 4.0 78   12 19 24.1 101.07     LegendNANA
20:00 7.3 4.6 83   14 21 24.1 101.07     LegendNANA
21:00 6.9 4.7 85   14 15 24.1 101.09     Mostly Cloudy
22:00 6.3 4.4 87   11 17 24.1 101.13     LegendNANA
23:00 6.2 4.6 89   12 18 24.1 101.14     LegendNANA

Notes on Data Quality.

Legend

  • E = Estimated
  • M = Missing
  • NA = Not Available*
  • [empty] = Indicates an unobserved value
Date modified: